Theta_e
320 321 321 322 321 322 323 321 327 330 329 327 327 329 323 324 328 327 329 331 331 330 330 333 332 332 335 339 339 336 335 338 339 338 340 338 335 335 335 336 337 335 336 336 336 335 334 334 334 335 335 333 333 332 330 330 331 329 326 324 322 320 314 311 313 319 324 325 322 319 321 324 321 318 320 324 323 321 314 310 308 309 309 309 310 311 311 311 312 312 312 311 311 311 311 311 311
321 322 322 321 321 323 322 322 332 334 332 327 325 327 324 331 334 329 333 332 331 330 333 334 333 335 335 335 334 336 337 336 336 336 336 335 335 336 336 337 337 336 336 336 336 334 332 331 332 334 333 332 332 331 330 330 330 327 324 322 320 318 314 313 314 322 325 323 322 321 322 324 322 316 316 319 318 316 314 315 315 312 310 310 311 312 312 312 312 312 312 311 311 311 311 311 311
321 322 321 321 321 322 324 325 330 329 328 325 323 327 328 335 336 331 332 331 330 330 333 334 334 335 335 338 337 338 338 335 335 334 334 335 336 335 335 336 336 337 336 336 335 333 330 327 329 332 331 331 332 331 330 330 329 326 323 320 319 318 316 317 316 320 323 323 324 323 324 325 323 318 316 318 319 320 321 325 325 321 316 313 311 312 312 312 312 312 311 312 311 312 311 312 312
321 322 321 322 322 322 329 329 331 329 324 326 325 329 333 335 335 330 330 330 330 329 331 333 335 335 336 340 337 338 338 334 334 334 334 335 334 334 335 335 336 337 336 335 334 332 329 324 324 327 329 330 333 332 330 330 328 324 320 318 320 320 321 324 321 322 323 324 325 325 326 326 324 321 321 325 325 326 327 328 328 327 323 316 311 311 312 312 312 312 312 312 312 312 312 312 312
321 322 322 322 324 323 327 326 332 332 322 329 329 329 335 333 333 329 328 330 329 329 330 333 335 335 337 338 336 338 338 334 334 334 334 334 334 335 336 336 336 336 336 335 332 331 327 324 322 323 324 328 332 332 331 330 327 322 317 317 319 319 322 325 323 325 325 325 325 326 326 324 324 321 321 323 323 326 328 329 329 330 326 316 312 311 312 313 312 312 312 313 313 312 312 312 313
321 322 322 323 324 320 326 325 328 331 322 331 332 331 335 330 332 328 328 329 328 331 331 331 333 335 337 337 336 336 336 334 334 333 333 335 336 336 336 336 335 335 335 333 330 328 325 324 323 321 321 325 331 331 331 329 326 320 315 315 315 315 319 323 323 325 325 325 324 323 322 319 322 322 319 320 322 326 328 328 330 330 325 316 313 311 312 313 312 313 313 312 312 311 312 312 313
321 322 322 323 324 321 330 326 326 331 321 327 333 334 333 328 329 327 328 327 327 329 330 332 331 335 337 336 336 336 336 335 333 333 333 334 335 336 336 334 334 333 333 331 329 326 324 323 322 320 319 323 329 330 330 329 325 318 315 314 312 314 318 322 321 321 320 320 320 318 318 316 318 320 320 320 322 326 328 328 327 326 323 315 312 311 312 313 312 313 312 312 311 312 312 312 313
321 321 321 324 328 327 331 326 329 332 317 320 330 331 329 328 327 326 327 324 326 327 327 332 330 336 337 335 336 336 337 335 333 332 332 333 334 335 334 333 332 331 331 329 328 326 322 321 318 318 320 323 328 329 329 328 322 316 315 313 312 314 317 320 320 319 319 319 321 321 319 317 317 320 322 323 322 323 325 325 323 322 319 314 311 311 312 312 312 312 312 312 312 312 312 313 313
321 322 322 324 329 332 336 330 326 325 318 320 325 328 328 328 325 324 325 324 327 325 326 329 329 337 337 335 336 336 336 336 334 332 331 331 332 332 331 331 330 329 329 327 326 324 319 317 316 320 324 325 327 329 328 325 320 316 314 312 313 315 317 321 322 324 323 320 321 320 317 316 317 320 322 323 322 322 324 324 322 319 315 312 311 312 312 312 312 311 311 312 312 312 312 313 313
321 322 320 327 330 329 333 331 327 322 318 319 320 327 328 325 324 324 325 326 327 325 326 327 329 337 336 335 335 336 336 336 335 333 332 331 330 330 328 328 329 328 327 325 323 320 316 316 319 326 328 327 328 329 327 323 319 316 313 313 317 319 322 325 325 325 321 316 316 314 312 312 314 316 317 318 320 323 325 324 321 317 312 311 312 312 312 312 311 311 312 312 312 312 313 313 313
323 321 320 330 332 326 329 331 332 326 320 319 318 324 325 324 323 323 325 326 325 324 323 326 334 336 335 335 335 335 336 336 335 334 333 332 332 330 328 327 327 326 326 325 322 318 314 316 322 327 328 329 329 328 326 322 319 316 312 315 322 322 323 325 323 321 316 312 312 311 310 310 310 311 314 316 317 321 323 322 321 316 312 311 312 312 312 312 311 312 312 312 312 312 313 313 313
323 324 325 331 330 328 330 330 330 328 329 327 320 321 322 323 323 323 325 326 324 323 321 324 332 334 335 335 335 335 335 336 335 335 333 333 332 331 329 327 326 325 324 323 322 319 315 317 321 324 327 329 329 327 325 322 318 315 312 315 324 324 322 322 320 317 312 310 310 309 309 309 309 310 312 314 315 317 319 320 319 314 311 312 312 312 312 311 312 312 312 312 312 312 313 313 313
322 325 327 329 331 330 329 327 327 329 332 327 319 320 322 322 323 323 325 325 324 323 322 323 327 332 336 335 335 335 335 335 335 334 333 332 332 331 329 328 326 325 323 322 322 320 316 317 320 321 324 327 328 326 323 321 317 314 311 313 321 322 321 321 319 315 311 309 309 309 309 309 309 310 311 312 313 314 315 315 314 312 312 312 312 312 311 311 312 312 312 313 313 313 313 313 313
322 322 325 327 331 330 326 326 327 327 326 323 320 321 322 322 322 322 325 327 325 323 322 323 324 329 336 335 335 334 335 335 334 333 333 332 332 331 330 329 328 326 324 322 322 320 317 317 319 319 322 325 326 325 322 319 317 312 310 312 315 317 317 318 316 314 311 309 308 308 309 309 310 311 311 312 312 312 312 312 312 312 312 312 311 311 311 312 312 312 312 313 313 313 313 313 313
321 321 325 328 329 328 326 326 327 328 324 321 321 321 322 323 322 322 324 327 325 322 321 322 320 322 332 336 335 334 334 334 333 332 332 331 332 331 331 331 329 327 325 322 321 320 317 317 319 318 322 324 324 324 321 318 316 311 309 310 311 312 313 314 313 312 311 309 308 308 308 309 310 312 312 312 312 312 312 312 312 312 311 311 311 311 312 312 312 312 312 313 313 314 313 314 314
322 321 325 328 327 327 327 323 323 326 322 319 320 322 322 322 322 323 323 324 324 322 321 320 319 319 325 330 330 330 333 334 333 331 331 331 332 332 332 331 330 328 325 322 321 321 318 317 318 318 322 323 322 322 319 317 314 309 309 309 309 311 312 312 312 312 311 309 308 308 308 309 310 311 312 312 311 312 312 312 312 311 311 311 311 312 312 312 312 312 312 313 314 314 314 314 314
322 323 327 327 327 327 327 323 321 324 322 318 319 321 322 321 322 323 325 324 323 323 322 321 319 322 324 326 327 329 332 333 332 331 330 331 332 332 332 331 330 327 325 323 322 321 318 318 318 318 321 323 320 318 318 316 313 310 309 309 309 310 310 311 311 311 310 308 308 308 308 309 310 311 311 312 312 312 312 312 312 311 311 312 312 312 312 313 313 313 313 314 315 315 315 315 315
323 328 328 326 329 328 327 324 321 322 320 317 318 320 322 322 321 321 324 323 323 323 323 323 321 322 325 325 326 329 331 331 332 331 329 330 331 331 331 330 329 327 324 323 323 323 320 318 318 318 321 323 319 316 316 315 313 311 309 308 309 309 310 310 310 310 310 308 308 308 308 309 310 311 311 312 312 312 312 312 312 312 312 312 312 312 313 313 313 313 313 314 315 316 316 316 316
324 330 328 329 334 325 320 319 316 317 317 316 316 319 321 321 321 320 322 322 323 326 326 327 324 323 324 324 326 328 329 330 330 330 329 328 329 329 329 328 327 325 323 322 322 323 321 319 318 318 319 322 319 315 315 315 313 312 310 308 308 309 309 309 309 309 309 308 308 308 308 309 309 310 311 312 312 312 312 312 312 311 312 312 313 313 313 313 314 314 314 315 316 316 316 316 316
322 326 328 331 331 320 315 316 315 316 316 316 316 318 319 320 320 320 320 320 321 325 327 329 327 325 325 325 326 327 328 329 329 330 329 328 328 327 327 326 325 324 321 321 321 323 322 321 320 319 319 320 319 314 312 313 313 313 312 309 308 309 309 309 309 309 309 308 308 308 308 308 309 310 311 312 312 312 312 312 312 312 312 313 313 313 314 314 314 314 315 315 316 316 315 315 315
320 323 328 327 322 318 316 316 316 316 316 316 316 317 317 318 319 319 319 320 320 321 323 325 325 324 325 326 326 327 327 328 329 329 329 328 328 328 327 326 324 322 321 320 322 323 324 322 321 320 319 319 319 314 311 311 312 312 312 310 308 309 309 309 309 309 308 308 308 308 307 308 309 310 311 312 312 312 312 312 312 312 312 313 313 314 314 314 314 314 315 315 315 315 314 316 316
321 321 323 322 318 318 316 316 316 316 316 316 316 317 317 317 317 318 318 321 322 319 320 321 321 323 324 324 326 327 327 326 327 327 327 327 327 327 328 326 324 322 321 320 321 323 324 323 322 320 318 318 319 315 311 310 310 311 312 310 308 309 309 309 309 309 308 308 308 308 307 308 308 309 310 311 312 312 312 313 312 312 312 313 313 314 314 314 315 315 315 315 314 314 316 318 318
323 322 320 319 318 317 316 316 317 317 318 317 317 317 318 316 317 317 317 319 320 319 320 320 320 321 322 324 325 326 325 325 324 323 323 323 323 326 328 326 323 322 321 320 321 322 322 322 322 320 317 317 317 315 312 311 310 310 310 310 309 308 308 308 309 308 308 308 308 308 307 308 308 308 310 311 312 312 313 313 313 313 313 313 313 314 315 315 315 315 316 315 314 315 317 319 319
323 324 321 319 318 317 317 317 317 319 319 318 318 319 318 318 318 317 316 317 318 318 319 318 318 320 323 325 324 325 323 322 321 320 320 320 319 322 327 326 322 320 321 321 321 321 322 322 323 322 318 316 315 315 314 312 312 311 310 310 309 308 308 308 308 308 308 308 308 308 307 308 309 308 309 311 311 312 312 313 313 313 313 313 314 315 315 316 316 316 316 315 314 315 317 318 318
321 323 322 319 319 317 317 318 318 320 320 319 319 319 319 320 319 318 318 319 318 318 318 318 318 320 323 325 324 325 324 322 321 321 321 320 320 323 326 325 321 321 321 321 322 322 322 322 323 322 319 315 315 315 315 314 313 311 310 310 309 308 308 308 308 308 308 308 308 308 308 308 308 308 309 310 311 312 312 312 313 313 313 313 314 315 316 316 315 315 316 315 315 317 319 319 319
321 321 321 320 319 318 318 318 319 320 321 321 321 320 321 321 320 319 319 321 320 319 318 317 318 320 322 323 324 325 325 324 322 322 321 320 321 324 326 323 321 321 321 322 323 323 323 323 323 322 318 316 316 315 314 314 312 311 310 310 309 309 308 308 308 308 308 308 308 308 308 308 308 308 308 309 310 311 311 312 312 313 313 314 314 315 315 315 315 316 316 316 317 318 319 321 321
322 320 320 320 319 318 319 319 319 321 321 321 322 323 322 321 319 319 320 320 319 319 318 317 318 320 321 322 323 324 325 324 322 322 322 321 321 323 324 323 322 322 323 323 324 324 324 324 325 323 319 315 315 313 312 312 311 311 310 310 309 309 308 308 308 308 308 308 308 308 308 308 307 307 308 308 309 310 311 312 312 312 313 314 314 315 315 315 315 316 317 317 318 319 319 319 319
321 321 320 319 319 319 320 320 320 322 322 321 322 322 321 321 319 319 321 320 320 320 318 317 317 319 320 321 322 323 325 324 324 323 321 321 319 320 322 323 323 324 325 325 324 324 325 325 325 325 321 317 314 313 312 311 311 310 310 310 310 309 308 308 308 308 308 308 308 308 308 307 307 307 308 308 308 309 310 311 312 312 313 314 314 314 314 315 315 316 317 317 318 319 318 317 317
320 320 321 320 320 321 321 321 321 322 323 322 321 322 322 322 320 319 321 321 321 321 319 318 317 318 318 319 321 323 324 325 326 324 320 318 318 318 319 321 323 325 326 327 327 326 326 325 325 326 323 320 317 315 313 312 311 312 313 313 312 312 311 310 309 309 308 308 308 308 308 308 307 307 307 307 308 309 310 311 312 312 313 313 314 314 314 314 315 316 316 317 318 318 318 317 316
320 320 320 322 321 322 321 321 322 322 323 322 321 324 325 324 322 321 322 322 321 321 320 319 318 318 318 318 320 322 323 325 325 323 319 318 318 319 319 320 323 325 326 328 329 329 327 326 326 326 326 323 322 320 318 316 315 316 317 317 315 315 315 314 313 311 309 309 308 308 308 308 308 308 307 307 308 308 310 311 311 312 313 313 314 313 314 314 315 316 317 318 318 318 319 318 317
322 321 321 324 323 321 321 320 322 323 322 321 323 325 325 324 323 322 322 322 321 321 320 320 319 318 318 318 320 320 323 324 324 323 320 318 318 319 320 321 323 325 327 328 329 329 328 328 327 327 327 325 324 323 322 321 320 321 321 321 319 318 317 316 316 314 311 310 309 308 308 308 308 308 308 308 308 308 309 310 311 312 313 313 314 313 314 315 316 317 317 317 317 318 320 319 318
324 324 324 325 324 324 325 321 320 323 322 321 323 326 325 323 323 323 323 323 322 320 320 320 319 318 318 318 319 320 321 323 325 325 322 320 318 319 320 321 323 325 326 327 328 330 330 329 329 328 327 326 325 325 325 324 323 324 323 324 323 322 320 319 318 315 313 312 310 309 308 309 309 309 309 309 309 309 309 310 311 312 313 313 313 314 315 316 317 317 317 316 315 317 319 319 319
324 326 327 326 325 326 329 325 320 321 321 320 322 325 325 323 322 321 321 322 322 320 320 320 319 319 318 318 319 320 321 323 326 326 324 321 319 318 319 320 322 324 325 326 328 329 330 330 330 330 329 328 326 325 325 325 325 325 324 324 324 324 324 322 320 317 315 314 313 311 309 309 309 309 310 310 310 310 310 310 310 312 313 313 314 315 316 317 317 317 316 315 315 317 319 319 318
325 326 328 327 325 326 328 328 323 320 321 321 321 322 323 323 321 320 320 320 321 320 320 321 319 318 318 318 318 319 320 323 323 323 322 321 320 318 318 319 321 323 324 326 327 328 329 330 330 330 330 330 328 327 326 326 326 325 325 325 324 325 325 324 323 319 317 317 316 314 312 310 309 309 310 311 311 312 311 311 311 312 313 314 315 315 317 318 318 317 317 315 316 318 320 319 318
326 325 327 327 326 326 326 329 326 321 323 322 321 321 321 322 321 321 321 320 319 318 318 319 319 318 318 317 318 319 320 321 320 319 319 321 321 319 317 318 320 323 324 325 326 327 329 330 330 331 331 331 330 329 328 327 326 325 325 324 324 324 324 325 324 322 321 321 320 317 314 312 311 310 310 311 311 312 313 312 312 313 314 315 316 317 318 318 318 318 317 316 316 318 320 319 319
325 324 326 327 328 328 325 326 323 320 324 323 320 320 320 321 320 319 319 319 318 318 318 318 318 317 317 317 318 319 320 320 319 318 319 320 321 320 319 318 319 322 323 324 325 327 328 329 330 331 331 331 331 331 330 329 327 325 325 324 324 324 324 325 324 324 324 323 322 320 317 315 313 312 311 311 311 312 313 314 314 315 316 316 317 317 317 317 318 318 319 317 317 319 320 320 320
324 324 325 326 328 329 326 326 322 317 321 324 320 319 319 319 319 317 316 317 316 316 316 316 317 317 317 317 317 318 319 320 319 319 320 320 321 322 321 320 320 322 324 325 325 325 326 327 328 329 330 331 331 332 331 330 328 326 325 325 325 325 325 325 325 325 325 324 324 322 320 317 315 314 313 313 312 313 313 314 315 315 316 317 317 317 317 318 319 320 320 319 318 319 319 320 320
325 325 325 326 327 329 327 327 322 315 318 323 321 320 319 319 319 317 315 316 316 315 315 316 317 317 318 318 318 318 318 319 319 319 320 320 322 323 323 322 321 321 321 324 325 324 324 324 324 324 327 330 330 331 331 330 330 328 326 326 326 326 325 325 325 325 325 325 325 324 322 320 317 316 315 315 314 314 315 315 315 316 316 316 316 317 318 319 320 321 321 319 318 319 319 320 320
327 327 326 327 328 327 327 325 320 315 318 324 324 321 320 319 319 317 315 316 317 317 317 318 318 318 318 318 318 318 318 318 318 319 320 320 321 322 324 324 322 320 319 322 324 324 325 324 321 322 323 325 327 329 330 330 330 329 328 327 326 325 325 325 325 325 324 324 325 324 323 322 320 318 318 317 317 316 316 317 317 317 317 317 317 318 318 319 320 321 321 320 319 319 320 320 321
328 329 328 329 329 328 330 328 320 317 320 324 324 323 321 320 319 318 317 316 318 319 319 320 320 319 320 320 320 319 319 319 318 318 319 320 321 322 323 323 322 321 321 321 322 323 324 322 320 320 321 321 321 324 327 328 329 330 330 329 327 325 324 324 324 323 324 324 324 324 324 323 322 321 320 319 319 319 318 318 319 319 319 319 319 319 319 319 320 320 320 320 319 319 320 321 321
328 329 328 329 329 329 331 327 321 319 320 320 320 323 324 322 321 320 318 317 317 318 319 320 321 321 322 322 321 321 321 321 321 320 318 319 320 321 322 321 320 322 323 321 319 319 320 319 318 319 320 320 319 320 322 326 329 329 330 330 329 327 325 324 323 323 324 324 324 324 324 324 323 323 322 321 320 320 320 320 320 320 320 320 320 319 319 319 320 320 320 320 320 320 320 321 321
327 327 327 328 328 329 328 324 321 323 325 322 320 326 331 329 325 323 320 318 317 316 316 317 319 320 320 321 321 322 322 323 323 322 320 318 319 320 320 319 319 320 321 320 317 316 316 317 318 319 319 320 319 318 319 323 327 328 329 329 329 329 327 326 326 326 326 325 325 325 325 325 325 325 324 323 322 321 321 321 321 321 321 321 321 320 320 320 320 320 320 320 320 320 320 321 321
328 326 326 327 329 330 327 322 323 328 329 324 318 324 332 330 326 324 322 320 320 318 315 315 317 318 319 320 320 321 322 322 322 323 321 318 318 320 320 319 318 317 317 318 318 317 317 317 317 317 318 318 319 319 318 320 323 326 328 328 328 328 328 327 327 327 327 326 326 326 326 326 326 326 325 324 323 322 322 322 322 323 323 323 323 322 321 320 320 320 320 320 320 321 321 321 321
328 327 326 327 328 330 326 323 326 329 328 324 318 320 326 325 324 324 323 323 323 322 320 317 316 317 318 319 320 320 320 321 321 322 322 320 319 319 319 319 319 318 317 317 317 318 318 317 316 316 317 318 319 319 319 318 318 321 323 325 326 327 327 327 327 327 327 326 326 326 326 326 327 327 326 325 324 323 323 323 324 324 324 324 324 323 322 321 321 320 320 321 321 321 321 322 322
327 327 326 325 327 330 329 327 328 326 327 328 322 319 323 326 327 325 322 324 326 325 324 321 317 318 319 320 321 321 321 321 321 321 322 322 321 319 319 319 319 319 318 317 317 317 317 317 317 318 318 317 318 318 318 317 317 317 318 321 322 323 324 325 326 326 327 327 326 326 326 326 327 327 326 326 325 324 324 324 324 324 325 325 325 324 323 322 321 321 321 321 321 321 322 322 322
324 325 327 327 328 329 329 330 330 326 327 330 326 322 325 330 332 326 321 324 327 324 323 320 317 319 320 320 321 321 321 321 321 321 321 321 322 320 318 318 318 318 318 319 318 317 318 318 319 319 317 316 316 317 317 317 317 317 317 317 317 317 319 321 324 325 325 326 326 326 326 326 326 326 326 325 325 325 325 325 325 325 325 325 325 324 323 323 322 322 322 322 322 322 322 322 322
322 326 328 328 327 327 328 328 328 328 329 330 327 323 326 330 330 327 325 326 326 323 322 320 317 317 319 319 321 321 321 321 320 321 321 321 322 320 318 317 317 318 318 318 318 319 319 319 319 319 317 316 316 316 316 316 317 317 316 316 315 315 316 317 319 320 322 324 324 323 324 324 325 325 325 324 324 324 325 325 325 325 325 325 324 324 323 323 323 323 323 323 323 323 323 323 322
324 329 329 327 326 326 326 325 325 330 331 328 327 324 325 329 328 326 326 326 325 322 322 322 319 316 319 321 321 321 321 321 321 320 321 321 321 320 318 317 317 317 317 318 319 319 319 319 319 319 317 317 316 316 316 316 316 316 316 316 316 316 316 317 316 316 317 319 319 320 321 322 323 323 323 323 323 323 324 324 324 325 325 324 323 323 323 323 323 324 324 324 324 323 323 323 323
326 328 328 328 328 327 328 327 327 331 329 322 323 324 325 327 326 325 325 324 324 320 317 319 317 316 319 321 321 321 320 320 320 320 321 321 321 321 319 318 317 317 317 318 318 319 319 319 319 319 318 317 316 316 315 315 316 316 316 316 316 317 317 317 316 315 316 316 317 318 319 320 320 320 321 321 320 321 322 322 323 323 323 323 323 323 323 323 324 324 325 324 324 324 323 323 322
324 325 326 328 328 329 330 330 329 330 326 319 319 323 326 326 326 326 324 321 322 319 316 316 316 316 319 321 321 321 319 319 320 320 321 321 321 322 321 320 318 317 317 317 317 318 319 319 319 319 318 317 318 317 316 316 315 315 316 317 317 318 318 317 317 316 316 316 316 317 317 318 318 318 318 318 318 320 321 321 322 322 322 323 323 323 324 324 324 325 325 325 325 324 323 323 322
323 324 325 325 327 328 328 328 329 328 325 320 319 324 328 328 327 324 319 317 317 317 318 318 316 317 318 318 320 321 319 319 319 319 319 320 321 321 321 321 320 317 317 317 317 318 318 318 319 319 318 318 318 318 317 317 315 315 317 317 318 318 318 318 317 316 316 316 317 317 317 317 318 318 318 318 320 321 322 322 323 323 323 323 324 324 324 325 325 325 326 326 325 325 324 323 323
323 324 326 325 327 329 326 325 327 326 324 321 320 323 326 326 324 319 315 315 314 314 314 314 315 316 315 316 319 321 320 319 320 319 319 319 319 320 320 320 320 319 318 318 318 318 318 318 319 319 318 318 318 319 318 317 316 317 317 317 318 318 319 319 318 317 317 317 318 318 318 318 318 319 319 320 321 321 322 323 323 324 324 324 324 324 325 325 326 326 326 326 325 325 325 323 323
323 324 326 324 325 329 327 323 322 324 326 324 322 323 324 325 323 319 319 321 320 317 314 312 314 316 315 315 319 320 321 320 320 320 319 319 319 318 319 319 319 319 318 318 318 318 318 318 319 318 318 318 319 319 318 318 317 318 318 317 317 318 318 318 318 318 318 319 320 319 319 320 320 320 320 320 321 322 323 323 324 324 324 324 324 324 325 325 326 326 326 326 325 325 325 323 323
323 324 324 322 324 329 331 327 323 324 327 325 323 323 324 325 325 323 322 322 322 321 318 314 315 315 315 316 318 320 321 320 320 320 319 319 318 317 318 317 317 318 318 317 318 317 318 317 318 318 318 318 318 319 318 318 318 318 318 317 317 318 318 318 318 319 320 321 321 319 320 320 320 320 321 321 322 323 323 323 324 324 324 324 324 324 325 325 326 326 326 326 325 325 325 324 323
322 322 321 324 326 327 329 328 326 325 326 326 325 323 322 323 323 324 323 323 323 320 319 320 317 315 316 318 318 319 320 319 319 319 318 318 317 317 316 317 317 317 317 317 316 317 317 317 317 317 317 317 317 318 318 318 318 318 317 318 318 318 318 319 319 319 321 322 321 320 321 321 321 322 323 323 323 324 324 324 324 324 324 324 324 324 324 325 326 326 326 325 325 325 326 325 324
321 320 320 325 326 325 326 324 326 327 323 324 325 323 324 323 319 321 323 324 325 322 323 325 319 314 316 318 318 318 319 319 319 318 317 317 317 316 315 316 316 316 316 316 315 315 315 316 316 316 317 317 317 317 317 317 317 316 317 317 318 318 319 319 319 320 322 321 321 322 322 322 323 324 324 325 325 325 325 325 325 325 325 324 324 324 324 325 326 326 326 325 325 326 326 326 325
323 323 323 324 324 325 325 324 328 330 324 325 325 322 326 326 319 319 320 320 322 322 322 323 316 314 318 319 319 319 319 318 317 316 316 316 315 315 315 315 316 315 316 315 315 315 314 315 315 316 316 316 315 316 315 315 315 315 316 316 316 317 318 319 320 321 321 321 321 323 323 325 325 325 326 326 326 326 326 326 326 326 325 324 324 325 325 325 325 325 325 325 326 327 327 327 325
323 324 323 324 323 324 326 325 328 329 325 329 329 322 326 328 318 316 319 319 319 319 319 318 315 316 319 319 318 319 318 317 316 315 314 314 314 314 314 314 314 315 315 315 314 314 314 314 314 314 314 314 314 314 314 314 314 314 315 314 314 316 317 319 320 320 321 321 322 323 324 325 325 325 326 327 327 327 326 326 326 326 326 325 325 325 324 325 324 324 325 326 327 328 328 327 325
Wind_Speed
3 5 9 9 11 6 5 7 1 2 3 1 2 1 1 2 1 2 2 1 2 5 10 13 12 12 10 10 12 10 7 2 3 3 3 8 17 19 16 15 13 14 15 14 13 11 11 10 9 8 7 5 4 3 1 2 2 3 4 5 6 7 9 10 12 13 12 11 9 9 9 8 7 6 8 10 9 8 9 11 10 10 10 10 10 10 10 11 11 12 12 11 11 11 10 10 9
3 5 8 8 10 6 3 5 2 3 5 3 2 2 2 3 4 1 2 2 4 10 18 21 21 19 16 14 11 7 8 6 2 8 11 16 20 17 15 15 12 13 13 12 12 10 10 10 10 8 7 5 4 3 2 2 2 3 5 6 6 7 8 10 11 12 12 11 10 10 10 10 9 9 10 11 10 8 9 11 10 10 10 10 10 10 10 11 12 13 13 13 13 13 13 12 11
4 5 7 8 10 6 2 4 3 2 4 3 2 2 1 3 4 3 4 5 10 17 20 19 16 13 11 9 7 4 4 7 11 16 18 18 19 18 15 14 12 11 12 12 12 10 9 9 9 8 6 5 3 3 2 2 2 3 4 5 7 8 9 10 11 12 12 12 11 11 11 11 10 10 11 11 11 10 11 12 11 10 9 9 9 10 11 11 13 14 14 14 14 14 14 13 12
5 6 7 9 8 5 3 3 2 4 2 2 2 4 2 4 6 5 3 6 7 10 11 11 9 6 8 7 6 6 5 9 15 16 18 18 18 19 16 14 13 11 12 13 12 11 10 8 8 8 7 5 3 2 2 2 1 3 4 5 8 10 11 11 11 12 13 13 12 11 11 12 10 10 12 12 12 12 13 12 10 9 8 9 10 10 11 13 14 15 15 14 14 14 14 13 12
5 7 7 8 6 2 2 3 2 4 1 3 2 4 5 4 6 4 4 8 7 7 8 9 6 6 11 9 3 3 6 10 14 14 17 18 15 17 16 14 13 12 13 14 13 12 11 10 8 8 7 6 4 2 2 1 1 3 4 6 8 9 11 11 11 12 12 13 12 11 11 11 10 10 12 12 13 15 14 12 11 9 8 10 10 10 11 13 14 14 14 14 14 14 14 13 12
5 6 6 6 4 1 2 2 2 2 3 5 4 4 5 5 6 7 8 10 10 10 9 9 8 9 10 8 5 6 7 7 12 14 16 18 15 15 14 14 14 13 14 14 14 13 12 12 10 8 8 7 5 3 2 1 1 3 4 5 7 8 9 10 11 11 11 12 11 10 10 10 10 10 11 12 13 14 12 11 11 10 8 9 10 10 11 13 14 14 14 14 14 14 14 13 12
3 4 5 4 4 3 3 3 2 3 2 5 6 6 7 7 9 9 7 7 8 9 9 10 13 11 7 5 5 5 4 2 8 14 16 17 16 14 14 14 15 15 14 15 14 12 12 12 11 9 8 7 6 4 3 1 1 2 3 5 6 7 8 9 10 10 10 10 10 9 8 9 10 9 10 11 12 13 12 10 10 9 8 8 9 10 11 13 13 13 13 14 14 14 14 13 12
3 4 5 3 2 3 3 0 3 3 0 2 5 7 11 13 13 8 4 4 4 6 10 10 10 8 3 3 3 3 6 3 7 13 15 15 16 15 15 15 15 16 15 15 13 12 13 12 10 9 8 8 7 4 3 2 1 1 2 6 7 8 9 9 9 9 9 10 10 9 8 9 9 9 11 11 11 12 11 9 9 8 7 8 9 10 11 12 13 13 13 13 13 13 13 13 12
2 3 4 3 1 3 2 3 3 3 1 1 4 8 15 16 13 9 5 4 5 5 9 9 6 5 4 6 6 6 8 7 8 13 14 14 16 16 15 15 16 17 16 13 12 12 13 12 10 9 9 8 7 5 3 3 2 2 2 6 8 9 10 9 10 9 9 10 10 9 9 9 9 9 10 10 11 11 10 9 8 8 7 8 9 10 11 12 12 12 12 12 13 13 12 12 11
2 2 2 2 2 3 3 3 2 1 2 1 3 9 15 15 13 14 10 6 7 7 8 8 6 9 9 8 8 8 9 10 11 13 15 15 16 16 16 15 15 16 16 13 10 11 12 11 10 9 10 9 8 5 4 4 3 3 3 7 9 10 10 9 10 10 8 9 9 8 8 8 8 7 8 9 10 11 10 9 8 8 9 9 10 10 11 11 11 12 12 12 12 12 11 10 10
3 3 2 3 2 1 1 2 3 3 2 2 2 9 11 13 14 13 13 9 7 7 8 7 9 14 12 6 6 8 10 11 11 12 16 16 15 16 16 16 16 15 14 13 10 11 12 11 10 10 10 10 8 6 5 5 4 3 4 7 9 9 10 10 9 8 8 8 8 8 7 6 6 6 6 8 9 10 9 8 9 10 10 10 10 10 11 11 11 11 11 11 11 10 10 9 8
3 3 3 3 1 1 3 2 3 4 5 3 3 4 5 12 15 10 12 12 8 7 6 4 10 14 8 3 7 10 12 11 11 12 16 17 16 17 18 18 17 16 14 13 11 11 12 12 11 10 11 11 8 6 6 6 5 4 5 8 10 9 10 10 8 8 8 8 8 7 7 6 6 6 6 7 8 9 9 8 9 11 11 11 10 10 10 10 10 10 10 10 10 9 8 7 7
2 2 3 2 3 3 3 2 2 2 4 3 4 1 3 9 12 14 15 12 10 7 4 5 13 13 5 4 9 12 13 12 12 14 17 18 18 18 18 19 19 18 16 14 13 13 14 13 12 11 12 12 9 7 7 7 6 6 7 9 10 10 9 9 9 8 8 8 7 7 7 6 5 6 6 7 8 9 9 9 10 11 11 11 10 10 10 10 9 9 9 9 8 7 7 6 6
0 2 2 1 1 2 2 1 1 2 3 4 4 2 5 4 8 17 16 10 7 8 6 7 13 10 5 7 9 17 17 14 15 16 20 20 19 19 19 20 19 18 16 15 14 14 15 15 13 12 13 12 10 9 8 8 7 8 8 9 9 9 9 9 8 7 8 8 7 6 6 6 5 6 7 8 8 9 9 9 10 11 10 10 10 10 10 9 8 8 8 7 7 6 5 5 5
4 3 2 1 2 1 1 1 2 4 4 4 2 2 7 7 7 15 14 9 5 9 10 7 10 5 6 10 9 18 19 16 18 19 22 21 20 20 20 20 20 19 17 16 15 15 17 16 15 13 14 13 11 10 9 9 9 9 9 9 9 8 8 8 7 7 8 9 8 7 6 6 5 6 8 9 9 9 9 9 9 10 9 10 9 9 9 8 7 7 7 6 5 5 4 4 3
7 1 4 1 1 1 2 1 3 3 3 4 2 4 7 6 9 10 8 10 10 11 9 6 7 3 6 11 6 10 17 18 19 20 22 22 21 21 21 21 20 20 18 17 16 16 18 17 17 15 15 14 12 12 11 10 11 11 11 10 9 8 7 7 7 7 9 10 9 8 7 7 6 7 8 8 9 9 10 10 9 9 9 9 9 9 8 7 6 6 6 5 4 3 3 2 2
8 1 3 1 2 2 3 3 3 3 4 4 4 6 5 4 7 9 7 11 14 10 7 6 6 4 5 7 3 7 16 20 20 21 23 23 23 23 22 22 21 21 19 18 17 17 18 19 18 17 16 15 14 13 12 12 12 12 12 11 10 9 8 8 6 6 10 11 10 9 8 8 7 7 7 8 9 9 10 10 10 9 9 9 8 8 7 6 5 5 4 4 2 2 2 2 3
7 2 2 2 2 3 4 5 5 3 2 3 3 6 7 6 7 10 9 10 13 9 7 7 6 6 5 5 5 9 16 20 21 21 23 25 25 25 25 24 23 22 21 19 18 18 19 20 20 19 18 17 16 14 14 13 13 13 12 12 12 10 9 8 7 7 10 11 10 10 9 8 8 7 7 8 8 9 10 10 10 9 9 9 8 7 6 5 4 3 2 2 1 1 2 2 3
7 3 3 4 3 3 4 5 4 2 2 4 2 4 7 7 8 11 6 6 12 8 6 7 7 8 7 8 9 11 16 19 20 21 21 23 25 26 27 26 26 24 22 21 20 19 19 20 21 20 20 19 18 16 16 15 15 14 13 13 12 11 10 9 9 9 10 11 11 11 10 9 9 9 8 8 9 9 9 10 9 9 9 8 7 6 5 4 3 2 1 1 1 2 3 3 3
7 4 4 5 5 2 3 4 4 3 3 4 3 3 6 6 8 9 7 7 9 8 9 9 9 11 10 10 12 14 17 19 20 21 20 21 22 25 27 27 27 26 24 22 21 20 19 20 20 21 21 21 20 18 18 17 16 15 14 13 13 12 11 10 9 10 10 11 11 11 11 10 10 9 9 9 9 9 9 9 9 8 8 8 7 6 5 4 2 1 1 2 2 3 4 3 4
6 5 4 5 5 2 3 4 4 4 3 4 4 4 4 5 6 7 9 7 4 10 15 12 11 13 14 14 15 16 17 20 21 22 21 21 21 23 26 27 26 25 24 22 21 20 19 19 20 20 21 22 21 20 19 19 18 17 15 14 14 12 11 11 10 10 11 11 11 11 12 11 10 10 10 9 9 9 9 9 8 8 8 7 6 5 4 3 2 2 3 4 4 4 4 4 3
4 4 4 6 7 4 4 5 4 3 2 3 5 5 4 4 5 7 9 6 5 10 13 14 13 13 13 15 17 18 19 20 21 22 22 21 21 22 25 27 26 25 24 23 22 20 19 19 19 20 21 22 21 20 21 20 19 18 16 15 15 14 12 11 11 11 11 11 11 11 12 12 12 11 10 10 10 9 9 8 8 8 7 7 6 5 4 4 3 4 5 6 6 4 3 4 4
4 4 4 8 8 5 6 7 5 3 2 3 4 3 3 2 4 7 9 9 7 6 6 9 11 11 12 14 17 19 20 21 21 21 21 21 21 21 24 27 28 27 25 24 22 21 20 19 18 19 20 22 21 21 21 21 20 18 17 16 16 15 13 13 11 11 12 12 12 11 11 12 13 12 11 11 10 10 9 8 8 8 7 7 6 6 5 5 4 5 6 7 8 5 3 4 5
4 3 5 8 7 6 9 9 6 3 2 2 2 2 3 2 3 4 8 12 8 6 7 7 8 11 15 18 18 19 19 19 19 18 18 18 18 19 22 26 27 27 26 24 23 22 21 19 18 18 19 20 21 21 22 22 20 19 18 17 17 16 15 14 12 12 13 13 13 12 11 11 13 13 12 11 11 10 10 9 9 8 8 7 7 6 6 6 6 7 8 8 8 5 5 6 6
5 4 7 8 5 6 10 9 6 3 2 3 4 5 6 6 4 5 9 11 8 8 11 11 10 14 19 21 20 20 20 19 18 19 19 17 17 18 22 26 27 27 27 25 24 23 21 20 19 18 18 19 19 20 21 21 20 19 18 17 17 17 15 14 13 13 13 14 14 13 12 11 12 13 12 12 11 11 10 10 9 9 8 8 7 7 7 8 8 8 8 9 7 6 7 9 8
8 9 7 8 6 6 8 9 6 3 3 4 5 7 10 8 5 7 12 12 11 11 13 13 13 16 20 21 22 22 22 21 20 20 19 18 18 20 24 26 27 28 27 25 24 23 22 20 19 18 17 18 17 17 18 18 19 19 18 17 17 16 15 14 14 14 14 14 15 13 12 12 12 12 12 12 12 12 12 11 10 9 9 9 8 9 9 9 9 9 9 9 8 8 8 10 11
11 13 9 10 10 8 8 8 7 4 4 6 6 7 12 10 4 5 8 8 9 12 13 15 15 17 20 21 23 24 24 23 20 20 20 20 21 22 26 28 29 28 26 26 25 24 22 21 20 17 17 16 16 15 15 16 17 18 17 16 16 16 15 14 14 15 15 15 15 14 13 12 12 12 13 13 13 13 13 12 11 11 10 10 10 10 10 9 9 10 10 10 9 10 10 10 11
11 15 9 7 8 7 8 8 8 5 4 7 5 6 12 9 4 7 11 9 9 12 12 15 18 19 20 21 23 25 26 24 21 22 22 23 23 23 25 28 30 28 27 27 26 25 24 23 21 18 17 16 15 15 15 16 16 17 16 15 15 14 14 14 14 15 14 14 15 14 13 14 13 13 14 14 14 14 13 13 13 13 12 12 12 12 11 10 10 11 11 11 12 12 10 8 9
11 14 7 3 3 4 8 9 9 6 3 4 2 6 11 8 7 11 14 14 15 16 15 15 19 21 22 22 25 26 26 25 25 25 24 24 23 22 24 26 28 29 28 27 25 26 25 24 23 20 19 17 16 15 15 16 16 15 14 13 13 14 13 13 14 14 13 14 15 15 14 15 15 15 15 15 15 15 14 15 15 14 13 13 13 12 12 11 11 11 11 13 14 12 9 8 7
9 9 4 3 2 4 8 9 8 6 5 4 3 5 11 8 12 17 18 20 19 18 19 19 21 23 23 24 25 26 27 27 28 27 25 24 24 24 24 25 28 29 28 27 26 27 27 26 25 22 21 20 17 16 16 16 16 15 15 14 14 14 13 13 13 12 13 14 15 16 16 16 16 16 16 17 17 16 16 16 16 15 14 14 14 13 13 12 11 11 13 14 14 11 8 8 6
5 3 1 3 3 3 7 9 8 5 8 8 7 5 12 5 8 12 14 18 18 18 19 21 25 26 26 26 26 26 27 28 29 27 26 24 24 25 25 26 29 30 29 29 28 27 27 27 27 25 24 22 21 20 19 18 18 17 16 16 16 16 14 14 13 12 13 15 16 17 17 17 17 17 17 17 17 17 17 17 17 15 15 15 15 15 14 13 12 12 14 14 14 11 8 8 6
1 3 2 3 4 2 4 8 13 9 7 10 8 4 11 6 10 15 15 19 19 19 19 19 24 28 28 27 26 26 26 28 30 29 27 26 25 26 26 27 29 31 32 31 29 28 28 28 28 27 26 25 24 23 22 22 21 20 19 18 17 17 16 15 14 13 14 15 16 17 18 18 18 18 18 18 18 17 18 18 17 16 16 17 16 16 15 13 13 13 14 15 14 11 9 10 9
2 4 3 3 5 2 4 5 15 18 8 7 9 6 7 4 9 15 13 18 21 19 20 19 22 28 29 27 26 27 27 29 31 31 30 28 27 27 26 27 29 31 33 32 32 31 30 30 30 29 29 28 27 26 25 25 24 23 22 21 20 19 18 17 15 15 16 16 16 16 18 19 19 19 19 19 18 18 18 19 18 17 18 18 18 17 15 14 14 14 15 16 14 11 10 11 11
4 3 2 3 4 4 3 4 9 16 8 6 9 9 13 8 6 10 7 8 14 18 22 22 22 27 29 28 27 28 29 31 32 31 31 30 29 28 27 27 28 30 32 33 34 33 32 32 31 31 30 30 30 29 28 27 27 26 25 23 23 22 21 19 18 18 18 17 17 17 18 19 20 20 20 20 19 19 19 19 19 19 19 20 19 17 16 15 16 15 15 15 14 12 11 12 11
6 5 3 2 3 5 6 4 5 8 7 8 7 8 19 15 9 18 19 13 11 16 21 22 24 27 28 28 29 30 31 32 30 29 29 30 30 29 29 28 28 29 30 32 34 34 34 34 33 32 32 32 32 31 31 30 29 29 28 27 26 25 24 22 21 21 21 20 19 18 19 21 21 21 21 21 20 20 20 20 20 20 20 21 20 18 17 18 18 17 15 14 14 13 12 11 11
8 8 6 4 4 5 6 5 5 6 6 8 8 10 18 15 9 17 25 20 16 18 20 22 24 24 24 25 28 30 33 34 29 27 29 30 30 30 30 29 29 29 30 31 33 35 36 36 36 35 35 34 33 33 33 33 33 33 32 31 30 29 28 26 25 25 24 23 22 20 21 22 22 22 22 22 22 21 21 21 21 20 21 21 21 21 20 19 19 17 16 15 15 15 14 13 13
9 8 7 6 5 5 4 5 6 5 5 7 10 11 15 16 10 14 21 18 16 20 21 23 25 25 25 25 27 29 33 34 30 29 31 31 31 31 31 31 30 30 31 32 33 34 36 37 38 38 37 36 35 35 35 36 37 37 36 36 35 33 31 30 29 28 27 26 25 23 24 24 23 23 23 23 23 23 23 23 23 22 22 23 23 22 21 20 19 18 17 17 17 17 16 15 15
8 7 6 6 5 5 5 4 5 4 4 6 7 9 15 17 11 12 15 11 15 22 20 23 28 29 31 31 32 32 32 33 33 33 34 33 33 32 32 33 33 32 33 34 35 34 35 36 37 38 38 38 37 36 36 37 38 39 39 38 37 36 34 33 32 31 30 28 27 27 26 25 25 25 24 24 24 24 24 24 24 24 24 24 24 23 23 22 21 20 20 20 19 19 18 16 15
6 5 5 5 4 3 5 4 3 4 4 5 5 6 12 17 12 11 14 14 20 26 24 27 30 30 32 35 36 35 34 35 36 36 36 35 34 34 34 35 35 35 34 35 35 35 36 37 37 38 39 39 38 37 37 37 37 37 38 38 38 37 36 35 34 32 31 30 30 29 29 28 27 26 26 26 26 26 26 25 25 25 26 26 26 26 25 25 24 23 23 22 21 21 19 18 17
4 4 5 4 4 3 4 4 2 3 3 2 3 4 7 11 9 10 17 22 25 29 30 31 32 32 35 37 37 37 37 39 39 38 37 36 35 35 36 36 36 37 36 36 36 37 38 38 37 38 39 39 38 38 37 36 36 36 36 37 38 38 37 35 34 34 33 33 33 32 32 30 29 28 27 27 27 28 27 27 26 26 27 27 27 28 27 27 26 25 25 24 22 22 22 20 19
5 5 6 4 5 7 5 3 1 1 2 0 1 4 5 8 10 11 14 16 22 29 29 30 34 36 37 38 39 40 42 42 42 41 41 39 38 38 37 36 36 39 39 38 37 37 38 38 37 38 39 39 38 38 37 37 37 37 37 37 38 40 40 39 38 38 37 37 36 35 34 33 32 31 30 29 29 29 28 27 26 27 27 28 28 28 28 27 26 26 26 25 24 24 23 22 20
6 8 9 7 8 8 5 3 3 3 4 3 1 4 5 6 10 12 8 4 12 19 18 24 33 35 35 37 41 43 44 45 45 44 43 42 42 40 39 37 37 39 40 39 37 36 37 38 38 38 38 39 39 38 38 38 39 39 38 39 40 42 44 43 42 41 40 39 38 37 36 35 34 34 32 31 31 30 30 29 28 27 27 27 28 28 28 28 27 27 26 26 25 24 23 23 22
7 9 11 9 9 7 5 5 4 2 4 3 2 5 6 5 5 8 6 4 9 11 10 20 30 31 33 36 41 43 44 45 46 44 43 43 44 44 43 41 39 39 38 37 38 38 38 38 38 38 39 39 39 38 38 39 40 41 40 40 41 43 44 44 42 41 40 39 38 37 37 36 36 35 34 33 33 32 31 30 29 29 28 28 28 29 29 29 28 27 27 26 25 24 24 25 25
6 7 12 11 8 7 5 6 4 3 2 3 1 4 5 6 6 7 7 7 10 10 10 17 24 29 32 35 38 40 42 44 44 45 44 44 45 45 46 45 42 40 37 36 38 39 40 39 39 39 39 39 39 39 39 39 40 40 40 40 41 43 44 43 42 41 40 40 39 39 38 38 37 37 36 35 34 34 33 32 31 31 30 30 30 30 30 30 28 27 27 27 26 25 26 26 26
4 6 12 10 7 5 4 5 3 1 2 4 3 3 3 7 6 5 5 7 9 12 13 13 20 29 33 36 38 38 39 40 41 43 45 45 46 45 46 46 44 41 38 38 38 37 38 40 40 41 41 40 40 39 39 39 39 39 40 41 41 42 42 42 42 42 42 41 41 41 40 39 39 38 38 37 37 36 35 34 33 32 32 31 31 31 31 30 29 28 28 29 28 27 27 27 27
3 7 8 4 4 4 4 4 2 2 2 7 6 5 4 7 5 3 3 5 8 10 10 12 21 30 33 35 38 39 38 38 39 41 42 43 45 44 45 45 44 42 40 40 39 38 38 40 42 42 41 41 40 39 39 38 39 39 40 41 42 41 41 40 41 42 42 43 43 42 41 41 40 40 39 38 38 38 37 36 35 35 34 33 32 32 32 31 31 30 29 29 29 28 28 27 27
7 7 7 6 3 4 3 2 3 1 6 9 9 10 6 6 4 5 5 5 8 9 9 11 18 26 30 32 35 36 37 37 37 39 40 40 41 42 43 44 43 42 41 41 42 41 40 40 41 42 41 41 41 40 40 39 39 40 40 41 41 41 41 40 40 40 41 42 43 42 41 41 41 41 40 39 39 39 38 38 37 36 35 34 33 33 33 32 32 31 30 30 30 30 29 29 29
10 5 6 5 1 2 1 1 2 4 8 6 10 12 8 8 6 3 5 6 6 8 9 10 13 20 26 26 27 29 31 33 34 35 37 38 39 40 42 43 43 43 42 42 42 42 42 41 41 41 40 41 41 41 40 40 40 40 40 41 42 41 41 40 39 39 40 41 41 41 41 41 41 41 41 41 40 39 39 39 38 38 36 35 35 34 34 33 33 32 32 32 31 31 31 31 30
5 5 7 5 3 2 3 4 3 7 6 2 6 10 7 11 7 4 9 11 10 12 15 15 14 18 21 20 22 24 24 27 29 30 32 33 36 38 40 41 42 43 44 42 41 41 42 42 41 41 40 39 40 41 40 40 41 41 41 41 41 41 41 41 40 39 39 40 40 40 41 41 41 41 41 41 40 39 40 39 39 38 37 36 35 35 35 34 34 34 34 34 33 33 32 32 32
7 8 9 8 5 5 7 7 5 6 4 1 3 4 3 6 5 7 13 16 17 19 22 23 20 21 24 23 24 23 19 19 21 23 26 28 31 33 36 38 39 41 42 41 40 40 41 41 42 42 39 39 41 42 41 41 41 41 41 42 42 42 42 42 41 40 40 40 40 40 40 40 40 41 40 40 39 39 40 39 38 38 37 37 36 36 36 35 35 35 35 35 34 34 33 34 34
14 10 9 10 7 6 7 7 7 6 1 1 3 3 4 4 3 7 12 17 20 22 24 25 24 26 27 27 29 28 20 16 17 18 19 21 23 27 31 34 36 39 41 41 41 41 41 42 42 42 40 39 42 43 43 43 42 42 43 43 43 43 43 42 42 41 41 41 40 40 40 40 41 40 40 40 39 39 40 39 38 38 37 37 37 37 37 37 37 37 37 36 35 34 34 34 34
9 5 7 10 6 4 2 3 6 4 1 2 4 4 4 5 6 8 9 13 17 22 24 23 24 25 24 25 31 31 24 20 21 21 19 18 18 20 26 31 34 38 40 41 42 42 42 42 42 42 40 39 41 43 43 44 43 44 44 44 44 44 44 44 43 42 42 42 42 41 41 41 41 41 40 40 40 39 39 38 38 38 37 37 37 37 38 38 37 37 37 37 36 36 35 35 34
5 5 8 7 4 5 3 1 0 4 2 4 3 6 6 3 8 11 11 13 14 15 15 15 20 20 17 20 26 29 28 27 27 26 24 21 19 18 20 25 30 35 39 41 41 41 42 41 42 42 41 41 42 42 42 42 43 44 44 44 44 44 44 44 44 42 42 42 42 42 42 41 41 41 40 40 39 39 38 38 38 37 37 37 37 37 38 38 38 38 38 38 38 37 36 35 34
5 9 8 4 2 2 4 1 1 3 3 3 5 12 7 1 6 6 7 14 17 13 7 9 16 17 15 18 22 27 29 28 27 25 24 22 19 18 18 19 22 27 31 35 35 36 37 38 40 41 41 41 41 40 39 39 40 41 41 42 42 43 44 44 43 43 42 43 43 42 42 42 41 40 39 39 39 38 38 38 38 37 37 37 37 37 37 37 38 38 39 39 39 37 36 34 34
1 8 9 6 3 3 4 4 3 3 5 4 5 11 8 7 8 5 6 13 16 15 10 8 13 16 20 22 21 22 24 24 23 22 21 21 20 19 19 19 19 19 22 24 25 27 30 32 34 36 36 36 36 36 36 35 36 36 37 38 39 41 42 42 42 42 43 43 42 41 42 41 40 40 39 39 38 38 38 38 38 37 37 36 37 37 37 37 38 39 39 40 39 38 37 35 34
2 3 7 5 3 5 7 6 4 5 6 5 4 5 5 8 10 9 11 11 9 11 10 8 11 18 24 26 25 24 23 22 21 19 17 17 18 18 18 19 20 19 20 21 22 24 25 26 28 29 30 31 32 33 33 33 33 33 35 36 37 38 39 40 41 42 42 42 41 41 41 41 40 39 39 39 38 38 37 37 38 38 37 37 36 37 37 37 37 38 39 39 39 39 39 37 35
5 7 9 8 5 2 3 6 4 3 5 5 4 6 7 6 5 11 15 13 11 13 11 9 13 18 21 24 26 25 21 18 16 14 14 14 15 15 16 18 20 21 22 23 24 24 24 25 26 27 28 29 30 31 32 32 32 33 34 34 35 36 37 38 39 40 41 41 41 41 41 40 40 40 39 39 38 37 37 36 37 37 37 36 36 36 36 36 36 37 37 37 38 40 40 38 37
14 12 14 14 11 6 5 7 3 2 4 4 3 8 9 5 6 10 14 13 15 18 13 9 14 19 19 19 19 18 16 14 12 11 12 12 13 14 15 17 19 21 22 24 25 26 26 27 27 28 29 30 30 31 32 32 32 33 34 33 34 35 35 36 37 38 39 40 40 40 40 40 40 40 39 38 38 36 35 35 36 36 36 35 35 35 34 34 34 34 36 38 40 42 41 40 39
Wind_Direction
333 327 326 341 347 339 351 5 53 11 53 57 327 108 292 263 157 76 30 42 63 44 74 85 83 88 97 104 111 100 74 94 186 146 179 152 148 160 158 155 162 175 173 161 163 164 167 166 162 165 168 171 166 160 143 118 109 114 105 109 119 129 133 133 138 139 139 139 149 157 154 148 143 142 135 127 118 110 102 106 111 104 96 90 85 82 83 83 87 92 95 98 99 100 100 99 96
328 325 330 343 350 357 2 20 80 346 37 59 329 129 280 333 53 100 184 108 119 108 94 91 89 90 95 96 94 78 52 44 146 134 133 141 150 159 157 158 159 173 176 164 166 168 173 172 166 171 181 182 174 172 152 135 120 98 95 105 119 128 130 129 132 131 132 132 131 134 132 126 125 133 136 134 128 119 103 101 107 107 100 92 87 86 86 88 93 95 94 94 94 94 93 92 92
325 317 328 345 355 16 45 34 74 53 58 89 286 276 354 67 107 195 183 114 122 115 100 95 89 88 99 83 53 66 74 83 129 134 134 152 163 161 162 162 159 177 182 172 170 171 179 178 176 181 188 186 170 164 148 143 121 85 87 106 120 128 129 127 130 131 131 127 123 123 122 121 124 127 125 123 120 113 103 102 102 101 98 97 94 90 92 95 97 96 94 94 93 92 91 90 89
333 319 329 351 3 21 54 47 94 107 79 163 227 285 290 139 156 194 141 98 115 118 108 98 76 73 103 97 73 86 112 126 139 145 149 163 171 159 160 165 167 184 186 181 176 175 184 187 188 190 193 189 180 168 162 167 133 99 94 116 124 126 127 125 127 129 129 127 124 122 120 121 122 122 120 118 119 114 108 106 103 94 92 103 101 93 96 98 97 97 97 96 95 93 91 89 87
334 324 330 350 10 22 66 66 76 95 169 186 155 270 258 186 167 178 114 88 87 95 110 109 86 89 92 91 94 106 127 145 153 162 159 162 168 156 157 168 175 187 190 187 182 182 188 193 195 197 198 196 196 195 196 209 136 108 105 125 129 130 131 129 129 129 129 129 128 126 124 124 119 118 121 122 122 119 118 116 109 103 100 108 104 96 98 99 99 98 98 97 95 92 90 89 87
324 328 336 2 38 57 77 67 7 329 235 167 149 221 224 213 166 140 108 90 82 86 103 113 120 112 88 75 85 124 129 140 161 173 166 160 162 159 164 176 183 191 195 191 186 189 192 198 200 199 199 197 200 204 217 243 137 109 115 132 133 137 136 134 134 130 131 133 133 131 128 128 120 114 121 124 122 119 120 121 119 116 108 107 104 100 100 100 101 100 100 97 93 90 87 87 85
318 337 352 27 49 34 82 112 235 271 234 164 163 181 197 198 157 130 107 97 81 79 90 106 126 115 87 91 92 122 139 132 157 171 172 162 161 169 178 182 189 194 198 193 191 195 197 202 203 202 200 196 201 209 222 243 206 124 129 138 139 141 136 137 136 132 134 135 134 135 131 130 126 118 118 122 124 124 123 128 132 130 113 103 102 102 102 100 101 100 99 96 92 89 85 83 80
333 352 7 53 45 25 85 117 245 209 346 163 169 170 178 172 150 130 105 118 100 80 95 115 131 106 87 151 106 124 150 151 151 168 175 170 172 182 189 186 189 193 196 195 197 201 201 204 205 203 198 198 203 211 224 237 217 165 150 143 145 143 139 139 134 131 136 135 134 133 129 129 128 120 118 120 127 130 129 135 141 143 127 108 106 108 106 102 102 100 98 95 91 86 82 79 76
347 352 14 62 57 22 51 327 288 231 281 123 173 177 171 165 146 128 108 102 116 90 96 121 133 117 137 124 106 137 151 156 156 166 176 185 188 194 200 192 189 192 193 194 201 205 203 205 203 196 193 198 202 210 220 218 206 189 172 149 148 145 139 139 135 134 137 139 139 134 130 130 129 124 124 127 130 128 126 133 139 148 141 116 111 110 107 105 103 101 97 94 88 84 80 78 75
360 20 39 67 65 16 360 315 293 252 215 163 216 188 171 164 144 130 126 119 130 105 94 109 112 132 139 115 117 152 161 165 165 166 177 191 199 204 209 204 198 197 192 188 196 204 203 205 200 192 193 198 199 208 212 202 201 193 172 151 148 146 141 142 142 140 137 137 141 136 132 134 134 134 133 132 133 131 128 132 132 137 138 122 114 110 107 105 102 100 96 91 87 83 81 77 76
355 16 52 71 68 36 321 291 291 281 279 332 213 184 177 158 136 128 125 128 146 126 118 109 112 130 126 117 139 155 159 170 175 171 176 191 202 208 213 213 210 209 202 193 194 200 203 207 205 199 197 199 201 207 206 201 199 185 170 154 148 150 150 154 153 144 137 136 139 135 134 140 142 145 140 134 135 137 136 132 127 127 130 124 117 113 109 106 103 100 95 90 87 84 82 77 72
337 348 48 93 136 173 188 245 283 279 319 338 169 171 179 154 135 135 134 137 155 138 137 130 145 142 112 119 154 155 165 173 182 181 183 193 203 208 213 214 214 214 212 206 202 201 204 210 214 210 205 204 202 203 205 201 195 180 174 163 156 159 161 164 164 153 148 143 140 137 137 143 148 151 144 137 135 138 140 133 127 127 128 124 120 116 111 109 105 100 95 91 89 86 83 77 71
335 9 78 127 190 158 175 212 261 280 332 291 215 359 122 156 149 154 146 140 150 138 126 125 155 153 109 140 158 171 181 181 185 190 192 197 204 208 210 211 213 213 211 209 207 204 202 209 217 218 215 208 201 200 203 202 197 184 175 173 171 170 169 170 171 165 157 150 146 145 143 146 151 150 141 138 136 138 140 134 130 128 128 125 122 119 114 112 108 103 98 94 91 87 80 74 70
31 20 106 177 206 137 155 224 241 185 258 255 246 333 99 129 161 160 142 130 149 144 134 136 161 159 127 143 170 190 191 187 188 191 194 198 202 204 208 209 213 213 212 210 209 207 203 208 215 219 221 213 202 201 204 204 201 190 177 180 183 179 177 178 179 175 166 160 156 153 150 150 150 145 139 138 135 135 136 133 131 130 128 124 123 121 118 116 113 109 102 98 94 85 80 76 72
176 23 88 155 339 117 178 243 184 169 220 241 255 84 100 95 143 158 142 134 152 147 143 148 168 173 169 171 192 202 195 189 188 189 193 195 197 201 207 209 213 215 214 212 210 209 206 210 212 215 221 215 206 206 210 208 203 195 183 184 187 181 181 183 184 186 179 170 165 161 160 160 154 147 144 141 138 136 134 134 133 132 129 126 127 125 123 123 119 113 107 101 95 85 81 78 71
190 59 58 151 283 200 226 211 120 149 227 230 206 133 109 96 129 143 141 147 146 146 155 158 175 223 203 189 207 203 193 190 187 189 192 193 195 200 205 208 212 214 214 212 210 209 208 212 212 212 218 217 211 209 212 209 204 199 190 187 187 184 183 184 185 190 186 177 171 170 170 167 160 158 152 146 144 142 139 138 139 136 133 131 132 132 130 131 126 119 111 102 97 87 77 62 43
196 158 51 258 220 177 222 192 150 180 238 240 198 171 142 111 129 127 127 149 146 150 169 166 187 218 206 202 224 192 187 189 188 190 193 195 197 199 203 207 210 211 211 210 208 209 210 212 213 212 215 217 213 210 212 208 205 203 197 191 189 188 187 187 186 185 184 180 177 177 177 173 167 166 159 153 152 149 147 146 145 142 138 138 139 139 138 137 132 122 114 106 94 64 37 12 4
183 136 106 238 213 186 206 190 189 168 205 242 198 186 161 136 145 135 125 138 140 145 169 171 191 198 200 216 210 190 185 189 192 194 196 198 202 203 206 209 211 211 210 208 206 207 209 212 213 213 215 217 215 212 212 210 208 208 205 200 193 190 190 191 186 180 184 183 183 184 182 178 173 172 166 161 161 157 156 154 152 149 145 146 147 147 147 146 141 130 120 103 65 351 334 329 325
169 123 143 221 214 207 213 184 184 147 193 218 168 171 161 151 156 148 145 151 145 138 144 165 187 191 200 207 197 191 188 192 197 200 202 204 207 210 211 211 211 212 212 210 207 206 209 211 212 214 216 218 217 215 214 214 212 212 212 210 202 196 195 196 189 185 189 188 188 190 188 183 180 178 173 170 170 166 164 161 157 155 154 154 157 157 158 155 154 156 127 11 341 315 310 314 314
181 150 165 227 223 229 229 182 155 140 186 182 130 138 151 154 159 160 163 158 163 170 161 167 188 194 198 198 194 194 194 198 202 207 211 213 215 217 217 215 214 213 214 213 211 208 210 213 214 215 217 220 219 218 218 217 215 214 215 214 212 205 202 202 197 195 198 196 193 193 193 190 188 185 179 180 179 176 172 168 163 162 163 165 168 169 170 172 185 226 279 304 308 303 306 323 337
189 170 183 210 198 208 206 179 147 135 166 171 153 148 146 153 169 177 157 143 208 212 197 205 213 204 200 197 197 200 201 203 206 212 216 220 222 222 221 221 219 216 215 214 214 213 213 216 218 218 219 220 220 219 219 219 216 215 215 214 214 213 210 208 205 203 206 205 199 196 198 196 196 193 188 188 187 186 181 176 172 171 174 176 180 185 187 197 221 260 285 289 283 281 296 321 340
184 202 208 178 172 188 186 180 169 156 167 160 158 164 170 169 192 195 170 163 223 222 216 225 230 222 213 206 203 203 207 209 211 215 219 223 225 224 221 219 218 216 215 215 216 217 216 217 220 222 221 220 219 220 220 220 218 215 215 215 214 214 212 211 210 208 212 213 207 202 203 205 204 200 195 194 194 195 191 184 181 181 184 187 193 201 209 225 247 273 286 287 283 278 294 319 333
197 240 221 179 183 188 176 182 182 171 173 159 159 185 206 201 227 219 214 216 208 202 209 213 226 235 226 214 207 206 210 214 217 221 223 225 227 226 221 216 214 213 215 217 219 220 220 221 224 226 225 221 220 220 219 218 219 217 216 216 214 213 211 210 210 211 214 217 216 209 208 212 211 206 202 199 199 202 201 195 193 191 192 197 204 212 224 240 259 274 279 280 281 285 299 314 332
188 237 223 191 199 197 177 179 178 167 174 193 195 240 249 224 240 240 237 235 224 223 229 225 228 224 216 211 210 215 216 219 223 227 229 231 234 233 225 217 212 212 215 217 219 221 223 226 229 232 230 225 221 220 219 216 217 219 218 217 214 212 211 210 210 212 215 219 222 216 212 213 211 210 205 203 205 207 207 206 204 201 200 205 213 222 233 246 256 265 273 278 280 292 306 306 317
203 219 223 196 205 199 181 181 181 184 206 247 253 257 257 247 259 268 252 244 236 234 240 240 226 210 211 213 216 220 219 221 225 227 228 232 236 233 226 219 211 210 214 216 218 221 224 226 230 234 233 229 224 222 221 218 218 219 219 219 216 215 214 212 212 214 216 222 225 221 217 214 211 213 208 205 209 211 213 214 213 211 209 211 218 230 241 250 259 269 278 284 288 299 301 299 301
216 209 211 200 204 188 187 196 192 212 231 248 268 267 268 265 272 271 255 245 238 238 238 233 220 210 211 216 221 222 221 222 224 225 226 226 229 226 221 218 214 212 215 216 218 222 223 225 230 235 235 233 229 224 221 221 219 218 219 221 220 221 220 216 216 218 218 223 228 225 221 218 215 217 213 210 212 216 217 217 218 218 217 219 225 236 245 255 269 280 283 286 286 286 281 281 284
209 204 208 213 216 200 196 206 205 220 246 255 259 262 274 271 250 254 246 225 225 240 238 227 223 220 217 220 224 225 225 226 227 227 224 221 223 222 217 216 217 215 216 218 220 223 223 224 229 233 234 235 232 226 221 222 222 219 220 221 223 225 227 225 224 224 222 223 227 227 225 223 221 220 219 218 216 220 222 219 220 222 221 225 231 239 249 260 273 280 280 281 280 279 278 270 267
204 196 206 230 230 215 200 203 215 212 239 255 258 273 280 273 224 225 232 231 243 258 254 231 228 229 225 226 226 226 227 228 228 227 225 222 222 222 218 217 218 217 217 219 222 223 223 224 229 231 233 233 230 227 223 222 224 225 224 222 224 226 229 231 232 233 229 227 230 229 226 226 226 224 224 225 222 224 225 222 223 223 222 229 237 244 252 261 269 274 274 276 276 277 278 268 253
195 183 183 236 247 247 213 203 215 209 224 245 343 309 274 250 230 233 238 251 256 260 262 241 230 231 230 229 227 226 228 227 226 229 231 227 226 226 223 222 221 220 220 220 223 225 225 226 227 230 231 231 227 226 224 222 222 227 229 227 227 228 229 233 238 240 235 233 235 234 230 228 229 228 229 230 227 227 226 225 226 226 227 233 241 248 254 260 266 272 274 274 274 271 266 264 257
180 176 158 180 237 268 219 202 202 200 218 196 95 287 262 242 240 244 246 250 251 253 257 245 235 232 230 227 226 228 228 226 227 232 234 231 229 228 227 226 224 225 224 221 222 224 226 226 227 227 228 229 226 224 225 223 220 223 227 226 228 230 229 232 240 243 240 236 237 238 235 232 232 231 231 232 232 231 229 229 230 230 232 238 244 249 255 261 266 273 273 270 266 261 256 261 265
151 158 150 167 198 232 212 201 184 188 223 189 125 254 257 243 229 236 240 243 246 252 254 248 237 230 227 225 225 229 230 230 233 236 236 234 232 229 228 226 225 226 226 224 225 224 225 227 227 225 225 226 224 224 226 226 225 224 226 226 226 230 230 231 236 240 241 240 239 239 237 235 235 234 233 234 235 235 234 235 235 234 237 242 246 251 254 259 267 271 267 262 255 246 242 250 244
144 176 190 183 198 228 255 209 185 198 224 183 147 249 265 251 228 234 239 243 249 253 253 251 241 230 224 224 226 230 234 235 236 237 238 237 234 232 228 224 224 226 226 228 229 226 227 228 228 227 225 224 223 225 227 230 231 229 228 229 229 232 233 233 235 236 238 241 242 241 240 238 236 235 235 234 235 236 237 238 239 237 239 244 248 252 256 261 268 267 262 259 255 243 237 242 235
233 199 179 177 192 214 295 246 204 210 209 183 189 233 273 269 228 229 236 245 248 250 252 253 246 232 223 224 229 234 236 235 235 237 238 236 234 233 230 225 224 226 228 229 230 230 229 230 231 230 228 226 224 225 227 230 233 233 232 232 233 234 235 236 236 236 236 238 242 243 243 242 240 238 238 238 237 236 237 240 241 239 240 244 246 251 258 264 266 262 259 260 257 247 243 246 243
204 191 160 172 188 190 237 289 233 216 208 218 214 234 255 253 225 232 251 260 247 245 248 250 245 233 226 226 231 235 236 235 237 239 238 235 233 232 231 228 224 226 228 229 231 233 233 234 234 234 233 231 229 227 228 231 234 236 236 235 234 235 236 236 235 236 238 241 245 245 245 246 245 243 243 242 240 238 238 239 240 240 241 244 247 250 255 259 260 259 258 259 255 246 246 249 246
176 174 163 157 186 204 214 243 246 201 201 229 211 235 252 252 249 255 264 271 257 247 247 248 242 233 231 232 232 234 236 237 240 243 241 238 235 233 231 230 226 226 227 228 230 233 235 236 237 239 239 237 235 232 230 231 232 234 235 234 234 233 234 234 235 239 242 245 247 246 246 248 248 246 245 245 243 241 239 239 239 239 241 246 250 252 253 254 257 258 258 257 253 245 245 244 236
165 175 182 179 186 224 225 233 240 186 192 227 209 227 251 254 253 257 260 259 253 250 248 248 245 239 239 241 239 237 236 238 243 246 245 241 239 237 234 232 229 227 228 229 229 231 234 236 238 240 241 240 238 236 232 229 228 230 232 233 233 234 235 237 239 242 244 246 247 247 247 248 248 247 246 246 245 243 242 243 242 242 244 247 251 253 254 256 258 259 259 257 250 243 240 233 226
167 174 190 192 190 236 234 239 252 199 194 233 217 228 253 256 248 249 255 257 250 246 245 246 246 246 248 250 249 244 241 244 247 246 245 244 242 241 239 236 233 230 229 230 230 231 232 234 237 238 240 240 238 236 233 229 227 228 230 233 236 237 239 240 241 242 245 248 249 249 248 248 248 247 247 247 247 246 245 245 245 245 246 248 252 255 258 259 259 257 256 253 248 242 237 230 226
174 176 187 198 198 236 241 238 250 189 185 249 233 232 253 256 252 254 255 253 248 243 240 245 248 250 253 254 253 251 250 251 250 247 244 243 243 242 241 238 234 232 229 229 230 231 232 234 236 238 239 239 239 238 236 234 231 231 233 237 239 240 240 241 244 247 248 250 251 250 249 248 248 247 247 248 249 250 248 247 248 248 250 251 253 256 256 256 255 253 250 248 246 243 239 232 228
177 169 174 202 196 234 270 267 254 175 182 252 246 225 253 261 260 260 252 242 249 249 243 246 248 249 251 252 252 252 252 252 250 246 243 242 242 240 240 238 235 234 232 231 231 232 233 235 236 237 237 238 239 240 239 239 237 236 236 238 240 241 241 242 245 247 248 249 251 251 250 249 249 248 248 248 250 252 252 251 251 252 253 254 255 255 254 253 252 250 248 247 247 245 240 233 229
189 160 173 209 174 164 253 264 244 192 188 210 228 233 258 272 275 264 249 242 249 255 251 249 249 247 250 251 253 253 252 252 251 248 244 241 240 238 237 238 236 234 233 232 232 233 234 235 236 236 236 237 238 239 241 242 242 241 241 241 241 242 242 242 242 242 243 245 247 248 249 248 249 250 251 250 251 252 253 254 254 254 254 255 255 255 254 253 251 250 248 246 245 242 239 235 229
210 189 188 197 178 187 215 230 176 5 299 244 293 297 274 257 263 262 251 240 245 252 252 252 250 248 250 251 252 252 252 253 253 251 246 240 238 237 237 238 237 235 233 231 231 232 234 235 236 236 237 238 238 239 240 242 243 243 242 241 241 240 240 239 238 239 240 241 243 245 247 248 249 251 252 252 253 253 253 254 254 254 254 254 254 255 254 254 252 250 249 247 244 242 240 239 235
215 212 200 183 181 199 191 156 108 39 307 269 184 277 276 254 257 262 261 237 245 251 248 250 252 250 249 249 249 250 250 251 252 252 250 244 240 238 238 237 236 235 234 233 233 233 235 236 236 237 238 238 239 239 240 241 242 242 241 240 239 238 239 238 239 240 241 242 244 245 246 248 250 252 253 253 253 252 252 253 253 253 254 254 255 255 254 253 251 249 248 247 245 243 242 241 240
219 204 187 182 174 184 167 142 141 161 254 275 160 213 270 297 270 260 259 248 256 258 246 247 251 251 249 248 249 249 249 249 250 250 250 247 244 240 238 237 236 237 238 237 236 236 236 237 237 238 238 239 239 240 240 240 240 241 241 241 241 241 242 243 244 245 246 247 248 248 248 250 251 252 255 255 255 254 253 253 253 253 254 256 257 256 255 254 252 250 248 248 246 245 243 241 241
229 171 166 184 169 164 167 150 177 221 258 296 193 182 273 282 254 255 252 250 265 266 254 251 250 250 250 251 251 250 249 249 248 248 247 246 245 243 240 240 239 240 242 241 240 238 237 237 238 238 239 240 241 241 241 240 240 240 241 242 243 243 245 247 248 248 249 249 249 250 251 251 252 253 255 257 257 257 256 255 254 254 255 256 256 256 257 256 253 251 249 247 246 244 243 244 244
253 154 161 182 160 142 143 134 178 316 12 267 222 146 277 267 249 267 254 236 253 256 252 254 253 251 251 251 253 253 252 251 249 248 248 247 246 245 243 242 242 244 245 245 244 243 240 238 238 238 239 240 241 241 242 242 242 242 242 244 244 244 246 248 249 249 250 249 250 251 251 252 254 255 256 257 258 258 257 258 257 256 257 257 257 257 257 256 253 251 249 248 246 244 244 246 248
219 149 132 124 104 89 90 109 119 55 293 241 207 161 239 265 237 220 234 220 234 250 250 247 250 252 253 253 254 256 255 253 251 251 251 250 248 247 246 243 243 246 247 247 247 244 242 240 239 239 239 240 241 242 242 242 243 243 243 245 246 247 248 248 248 249 249 249 250 251 252 253 254 255 256 257 258 258 258 258 258 258 258 258 259 258 257 255 253 252 251 250 249 248 247 248 250
124 118 98 75 43 45 55 65 81 75 257 237 192 170 199 266 247 198 214 216 214 233 247 248 250 253 256 258 259 260 259 257 256 253 253 253 252 249 245 243 244 246 247 247 246 243 241 241 239 240 241 241 242 242 242 243 243 243 244 245 247 249 249 250 249 249 249 250 251 252 253 254 254 255 256 257 258 258 258 258 258 258 258 258 258 258 257 255 254 254 253 252 251 250 250 251 252
128 115 117 114 46 26 30 33 96 222 252 234 177 162 178 237 250 213 241 251 229 227 239 249 251 252 257 263 268 268 265 263 261 258 256 254 253 249 244 241 243 245 244 243 244 243 242 241 240 241 241 241 242 242 243 243 243 244 245 246 247 250 251 252 252 252 252 251 252 254 254 255 255 256 256 256 256 257 257 258 258 257 257 258 258 257 256 256 254 254 253 252 252 252 252 252 252
156 135 141 151 176 189 207 205 192 221 254 296 161 154 183 236 251 258 259 261 246 233 235 240 245 253 263 272 279 282 277 270 266 263 260 256 254 252 247 243 241 241 241 242 243 243 243 242 241 241 241 242 242 242 243 244 244 245 246 247 248 250 251 252 254 254 254 253 254 254 254 256 256 257 257 257 258 258 257 258 259 259 259 260 260 258 257 256 254 252 252 252 252 252 253 254 254
188 173 169 173 172 191 208 206 215 230 248 335 152 162 235 269 271 237 242 252 249 245 247 250 255 261 267 271 276 285 284 271 269 267 262 259 257 256 252 247 242 239 239 241 243 244 245 245 243 243 243 243 242 242 243 244 245 247 248 249 250 250 252 254 255 256 255 255 255 255 256 257 258 260 261 262 263 261 259 260 261 261 262 262 261 260 258 257 255 253 252 251 252 253 255 255 255
194 186 178 186 180 194 203 196 212 223 226 184 183 193 203 213 247 226 232 255 263 262 261 262 264 264 267 265 264 270 270 259 265 270 267 265 263 260 256 250 244 240 240 241 243 244 245 246 246 246 246 245 243 243 243 244 246 248 249 250 251 252 253 255 257 258 258 258 257 257 258 259 260 262 263 265 265 264 262 262 262 262 263 262 262 261 259 257 255 253 252 253 254 255 256 256 255
200 162 181 205 191 175 177 191 202 179 141 208 200 235 217 208 276 279 256 262 265 262 262 263 264 265 268 260 251 255 257 254 261 267 268 270 269 264 258 252 247 243 241 242 244 245 246 248 248 249 250 248 246 245 245 245 246 248 249 251 253 254 255 256 258 259 260 259 259 259 260 261 262 263 265 266 266 265 265 264 263 263 264 263 263 263 261 259 256 254 254 253 254 254 255 256 256
184 171 194 202 144 132 132 213 73 95 194 227 199 252 278 306 285 275 262 268 269 257 250 253 259 263 263 254 246 247 250 254 261 264 264 267 266 262 258 254 250 247 244 245 247 249 251 251 251 251 252 251 249 248 249 249 249 249 251 253 255 256 257 258 260 261 262 261 261 261 261 262 262 263 264 265 266 266 266 266 265 265 265 264 264 264 262 261 259 256 255 255 254 255 255 256 256
156 185 184 144 89 91 102 163 19 80 221 245 213 233 245 252 262 256 232 249 261 258 235 243 263 263 256 254 249 246 250 255 259 261 260 260 260 259 256 253 251 248 247 247 250 252 254 255 254 253 253 252 252 252 253 254 254 254 255 256 257 258 259 261 262 262 262 262 262 262 262 262 263 264 264 265 265 265 266 266 265 265 265 265 265 265 263 261 260 258 257 257 257 257 257 257 256
143 181 165 144 183 208 161 177 192 171 221 259 232 232 226 204 226 235 206 223 242 254 253 251 261 256 249 249 247 244 249 256 260 260 259 258 259 259 254 248 246 243 242 243 244 246 249 251 252 252 252 252 253 254 254 255 255 255 256 257 257 259 259 261 262 262 262 262 262 262 262 262 263 264 265 265 265 265 265 265 264 264 265 264 264 264 263 262 259 258 258 257 258 257 257 258 256
357 146 166 175 196 197 189 194 187 178 212 248 248 234 234 220 208 203 219 225 228 243 251 246 243 243 242 241 242 248 255 261 265 263 256 253 253 252 246 241 239 237 237 238 238 239 241 243 245 246 246 246 247 248 248 249 249 250 252 253 255 257 258 259 260 261 261 262 263 263 263 264 265 265 265 265 265 265 265 264 264 264 263 263 263 262 261 261 259 258 258 257 258 256 254 257 255
169 172 184 197 203 184 195 208 185 151 197 231 256 250 251 245 194 190 212 226 230 234 241 241 240 244 245 241 241 248 256 260 260 250 238 236 238 239 237 235 235 235 236 238 238 238 237 237 238 238 239 239 240 242 243 243 244 246 248 250 252 254 255 257 258 260 261 262 263 264 265 266 267 267 267 266 265 265 264 264 264 263 263 262 261 261 260 260 259 259 258 257 257 254 253 256 254
181 188 189 191 192 174 186 211 191 108 198 189 210 258 261 233 182 192 204 212 225 233 235 236 240 244 243 237 236 241 247 247 240 226 220 223 229 234 236 236 237 237 238 239 241 240 238 236 236 235 236 236 236 238 240 241 242 244 245 247 249 252 253 255 256 258 260 261 263 264 265 266 266 267 267 266 267 266 265 265 264 263 263 262 262 262 261 261 260 259 258 257 256 253 253 257 253